Retour au catalogue

PSLV DEB

ActifSSO
NORAD 35350·DEBRIS·🇮🇳 India

Lancé Oct 22, 2001 depuis Satish Dhawan Space Centre

Loading…

Prochains Passages (prochaines 24 heures)

TLE

FraisSource: Space-Track

Époque: Sep 14, 2026, 09:50 UTC

1 35350U 01049QJ  26257.41020136  .00001025  00000-0  23662-3 0  9999
2 35350  98.5015 309.3968 0065848 113.5357 247.2776 14.56136958696947

Suivez PSLV DEB en temps réel avec AllMySat

Download on the App Store